Sigil TimeFrame

115 2024-05-26 17:40:02
NameTime LeftWindow Opens
Jade Dragonite1d 17:192024-05-26 00:20:01
Skybrine The Inescapable1d 12:592024-05-26 04:40:02
Animation of Versatility1d 03:492024-05-26 13:50:01
Esquin, the Kinetic Master0d 23:492024-05-26 17:50:01
Howldroid, Tormentor of the Pit0d 23:092024-05-26 18:30:01
Numerocure, The Black Messenger of Evil0d 21:342024-05-26 20:05:01
Kinark, the Kinetic Deity0d 20:592024-05-26 20:40:01
Lord Xordam0d 19:292024-05-26 22:10:02
Bloodchill the Grizzly0d 17:392024-05-27 00:00:01
Sigil, Lich of Woe0d 17:192024-05-27 00:20:02
Smoot the Yeti0d 16:442024-05-27 00:55:01
Tylos, The Lord Master0d 13:592024-05-27 03:40:01
Ebliss, Fallen Angel of Despair0d 13:342024-05-27 04:05:01
King Ashnar, Lord of the Unliving0d 13:042024-05-27 04:35:01
Dexor, Victor of Veldara0d 10:592024-05-27 06:40:01
Lord Suka0d 10:442024-05-27 06:55:02
Vitkros, Hydra of the Deep0d 10:392024-05-27 07:00:02
Dreg nor, Keeper of the Infernal Essence0d 10:342024-05-27 07:05:02
Crolvak, the Fire Master0d 10:142024-05-27 07:25:02
Bolkor, the Holy Master0d 09:392024-05-27 08:00:02
Wanhiroeaz the Devourer0d 09:342024-05-27 08:05:01
Pinosis0d 08:292024-05-27 09:10:02
Samatha Dark-Soul0d 07:442024-05-27 09:55:02
Lady Chaos, Queen of the Abyss0d 06:592024-05-27 10:40:01
Felroc, Overseer of Hellfire0d 05:442024-05-27 11:55:02
Detox0d 05:342024-05-27 12:05:01
Jorun the Blazing Swordsman0d 05:342024-05-27 12:05:02
Baron Mu, Dark Rider of the Undead0d 05:192024-05-27 12:20:01
Ancient Magus Tarkin0d 04:542024-05-27 12:45:01
Kro Shuk, Doomslayer0d 04:242024-05-27 13:15:03
Hyrak, Bringer of Nightmares0d 03:392024-05-27 14:00:02
Threk, King of Lords0d 03:192024-05-27 14:20:01
Shadow0d 03:042024-05-27 14:35:01
Synge, The Red Dragon0d 02:192024-05-27 15:20:01
Nessam0d 01:092024-05-27 16:30:01
Lord Narada0d 00:592024-05-27 16:40:01
Villax, Twin of Strength0d 00:292024-05-27 17:10:02
Garland, The Lord Keeper0d 00:192024-05-27 17:20:01
Ganja the Stone Golem0d 00:092024-05-27 17:30:02
Rillax, Twin of Wisdom0d 00:002024-05-27 17:40:02
Straya, the Underworld Ruler0d 00:152024-05-27 17:55:02
Lacuste of the Swarm0d 00:202024-05-27 18:00:01
Old World Drake0d 00:352024-05-27 18:15:01
Rancid, Lord of Thugs0d 00:502024-05-27 18:30:02
Freezebreed, The Frozen Manipulator0d 01:252024-05-27 19:05:02
Kretok, Descendant of Nature0d 01:352024-05-27 19:15:01
Mistress of the Sword0d 01:402024-05-27 19:20:02
Archdevil Yirkon0d 02:002024-05-27 19:40:01
Lord Varan0d 04:002024-05-27 21:40:02
Sarcrina the Astral Priestess0d 04:002024-05-27 21:40:02
Keeper of Nature0d 06:352024-05-28 00:15:02
Holgor, the Holy Deity0d 07:552024-05-28 01:35:01
Skarthul the Avenged0d 08:202024-05-28 02:00:02
Akkel the Enflamed Warrior0d 10:152024-05-28 03:55:02
Nayark the Mummified Sorcerer0d 10:402024-05-28 04:20:01
Rotborn, Eater of the Dead0d 12:002024-05-28 05:40:02
Amalgamated Apparition0d 12:102024-05-28 05:50:02
Brutalitar, Lord of the Underworld0d 12:352024-05-28 06:15:02
Volgan the Living Ironbark0d 12:452024-05-28 06:25:01
Hackerphage, Protector of the Gateway0d 12:552024-05-28 06:35:01
Windstrike The Vile0d 13:002024-05-28 06:40:02
Sylvanna TorLai0d 14:402024-05-28 08:20:01
Xynak, the Arcane Master0d 15:202024-05-28 09:00:02
The Emerald Assassin0d 15:302024-05-28 09:10:02
Melt Bane, The Forbidden Demon Dragon0d 17:052024-05-28 10:45:02
Firan, the Fire Deity0d 17:552024-05-28 11:35:01
Noxious Slug0d 17:552024-05-28 11:35:02
Beast of Cards0d 17:552024-05-28 11:35:02
Karvaz, Lord of Alsayic0d 18:102024-05-28 11:50:01
Dlanod, the Crazed Chancellor0d 18:352024-05-28 12:15:01
Nar Zhul, Slayer of All0d 20:302024-05-28 14:10:01
Crane0d 20:552024-05-28 14:35:01
Balerion, Dragon of Dread0d 21:552024-05-28 15:35:01
Ag Nabak the Abomination0d 23:052024-05-28 16:45:02
Animated Captain0d 23:502024-05-28 17:30:01
Emperor Neudeus, Controller of the Universe1d 00:052024-05-28 17:45:01
Nafir, God of Desolation1d 02:352024-05-28 20:15:02
Tsort1d 02:402024-05-28 20:20:01
Gnorb1d 03:402024-05-28 21:20:02
Zertan, The Collector1d 04:152024-05-28 21:55:02
Jazzmin, Maiden of Vitality1d 04:502024-05-28 22:30:02
Arcon, the Arcane Deity1d 05:452024-05-28 23:25:02
Traxodon the Plaguebringer1d 07:552024-05-29 01:35:01
Murderface1d 08:452024-05-29 02:25:01
Lord Sibannac1d 11:452024-05-29 05:25:02
Gorganus of the Wood1d 12:202024-05-29 06:00:02
Shayar, the Shadow Deity1d 12:452024-05-29 06:25:01
Agnar, Astral Betrayer1d 13:002024-05-29 06:40:01
Great Lord Ganeshan1d 13:202024-05-29 07:00:01
Murfax, Beast of the Caves1d 17:452024-05-29 11:25:02
Anvilfist1d 18:202024-05-29 12:00:02
Terrance, Rebel of Rallis1d 18:302024-05-29 12:10:02
Ormsul the Putrid1d 19:152024-05-29 12:55:02
Viserion, the Necrodragon1d 19:402024-05-29 13:20:02
Raiyar, the Shadow Master1d 19:452024-05-29 13:25:01
Q-SEC Commander1d 20:452024-05-29 14:25:02
Thanox, Balancer of Chaos1d 23:552024-05-29 17:35:01
Slashbrood, Devourer of the Blackness2d 01:452024-05-29 19:25:02
Lady Ariella2d 04:552024-05-29 22:35:02
Anguish2d 05:452024-05-29 23:25:02
Valzek, Harbinger of Death2d 06:152024-05-29 23:55:02
Varsanor, Master of Darkness2d 16:102024-05-30 09:50:01
Quiver, The Renegade3d 06:152024-05-30 23:55:01
Grivvek, Protector of the Brood3d 06:202024-05-31 00:00:01
Gregov, Knight of the Woods3d 12:252024-05-31 06:05:02
Crantos, Defender of Ultimation3d 22:352024-05-31 16:15:02
Zikkir the Dark Archer1089d 21:392021-06-02 20:00:01
Rook, Hand of Arkron423d 17:292023-03-31 00:10:02
Shaik, Servant of Arkron422d 19:292023-03-31 22:10:02
RNGesus203d 23:392023-11-05 18:00:02
Animation of Power7d 16:442024-05-20 00:55:02
Banok, Demon of Insanity5d 17:542024-05-21 23:45:01
Envar, Demon of Lunacy5d 09:142024-05-22 08:25:01
Rezun, Demon of Madness5d 00:542024-05-22 16:45:01
Animation of Chaos0d 12:492024-05-27 04:50:02